Zurück zum Katalog

THORAD AGENA D DEB

AktivLEO
NORAD 4993·DEBRIS·🇺🇸 United States

Gestartet Apr 8, 1970 von Vandenberg Space Force Base

Loading…

Nächste Überflüge

TLE

Source: Space-Track
1 04993U 70025HP  26229.86780393  .00001032  00000-0  69003-3 0  9991
2 04993 100.2074  25.6069 0083074 188.3267 171.6521 14.02090786847375

Verfolge THORAD AGENA D DEB in Echtzeit mit AllMySat

Download on the App Store